Location: Claremont
(33.9858°S, 18.4575°E)
Time: 03:42:43
(UTC+00:00)

deb Transit VC - Pass Details

Date: 26 September 2021
Orbit: 840 x 909 km, 90.5° (Epoch: 23 October)

Event Time Altitude Azimuth Distance (km) Brightness Sun altitude
Rises 17:08:33 0° 350° (N) 3,485 ? -5.6°
Reaches altitude 10° 17:11:03 10° 344° (NNW) 2,544 ? -6.1°
Maximum altitude 17:16:34 48° 270° (W) 1,132 ? -7.3°
Drops below altitude 10° 17:22:03 10° 196° (SSW) 2,529 ? -8.4°
Sets 17:24:33 0° 190° (S) 3,463 ? -8.9°
